Location: *
(17.3280°S, 114.7300°W)
Time: 15:25:52
(UTC+00:00)

Hubble Space Telescope - Pass Details

Date: 04 November 2020
Orbit: 536 x 540 km, 28.5° (Epoch: 29 November)

Event Time Altitude Azimuth Distance (km) Brightness Sun altitude
Rises 02:07:12 0° 305° (NW) 2,663 4.9 -5.7°
Reaches altitude 10° 02:09:29 10° 310° (NW) 1,777 3.9 -6.2°
Maximum altitude 02:13:29 53° 27° (NNE) 660 1.0 -7.1°
Drops below altitude 10° 02:17:32 10° 104° (ESE) 1,789 2.9 -8.0°
Enters shadow 02:18:29 - 106° (ESE) 2,156 3.4 -8.2°
